Satellite: AO-40 Catalog number: 26609 Epoch time: 02336.45585648 Element set: 286 Inclination: 7.7779 deg RA of node: 78.9030 deg Eccentricity: 0.7931368 Arg of perigee: 117.8697 deg Mean anomaly: 340.0016 deg Mean motion: 1.25597921 rev/day Decay rate: -8.50000e-07 rev/day^2 Epoch rev: 960 Checksum: 337